SCP
0 0 0 0 0 0 0 0 0 0 0 0 0 0 0 0 0 0 0 0 0 0
0 0 0 0 0 0 0 0 0 0 0 0 0 0 0 0 0 0 0 0 0 0
0 0 0 0 0 0 0 0 0 0 0 0 0 0 0 0 0 0 0 0 0 0
0 0 0 0 0 0 0 0 0 0 0 0 0 0 0 0 0 0 0 0 0 0
0 0 0 0 0 0 0 0 0 0 0 0 0 0 0 0 0 0 0 0 0 0
0 0 0 0 0 0 0 0 0 0 0 0 0 0 0 0 0 0 0 0 0 0
0 0 0 0 0 0 0 0 0 0 0 0 0 0 0 0 0 0 0 0 0 0
0 0 0 0 0 0 0 0 0 0 0 0 0 0 0 0 0 0 0 0 0 0
0 0 0 0 0 0 0 0 0 0 0 0 0 0 0 0 0 0 0 0 0 0
0 0 0 0 0 0 0 0 0 0 0 0 0 0 0 0 0 0 0 -0 0 0
0 0 0 0 0 0 0 0 0 0 0 0 0 0 0 0 0 0 -0 0 0 0
0 0 0 0 0 0 0 0 0 0 0 0 0 0 0 0 0 0 0 0 0 0
0 0 0 0 0 0 0 0 0 0 0 0 0 0 0 0 0 0 0 0 0 0
0 0 0 0 0 0 0 0 0 0 0 0 0 0 0 0 0 0 0 0 0 0
Wind_Speed_500mb
33 43 47 33 9 27 46 34 24 14 8 15 18 17 16 20 25 29 34 37 39 42
32 29 10 33 28 39 32 16 8 8 12 14 14 14 19 24 29 32 36 40 43 48
31 30 41 47 41 27 14 12 13 13 9 7 12 21 26 29 33 37 42 45 46 48
29 48 53 41 34 22 17 14 10 3 6 14 17 22 28 33 37 40 41 41 40 41
30 36 30 24 15 11 11 7 2 3 9 13 20 26 33 38 38 36 35 36 37 37
39 32 26 16 17 15 10 6 2 8 14 20 27 34 33 29 30 31 33 34 35 39
40 34 26 21 17 12 5 5 10 16 22 28 30 27 24 25 24 26 29 32 35 40
37 32 27 20 12 6 6 11 16 20 23 25 20 20 25 24 26 29 32 37 42 47
30 26 20 14 9 7 9 12 15 18 21 19 23 27 26 27 29 33 38 46 53 51
26 21 17 13 11 13 13 13 16 20 24 27 25 25 27 29 31 38 46 54 55 52
22 19 17 15 15 17 17 18 22 28 26 21 21 21 24 27 36 44 49 50 50 51
21 20 19 18 19 20 21 23 29 27 22 15 15 15 16 25 36 42 47 48 45 46
25 23 22 21 21 22 24 28 26 21 14 15 16 12 15 25 34 39 42 41 41 40
26 23 23 22 23 23 20 20 16 15 14 12 13 14 15 21 29 35 39 45 41 43
Wind_Direction_500mb
222 220 229 253 188 187 195 194 199 220 254 268 278 281 290 301 310 309 308 306 303 302
209 202 176 196 204 199 204 196 235 227 244 250 265 287 311 315 314 309 306 305 305 302
208 184 183 197 189 180 180 199 199 202 199 233 302 310 308 307 311 313 311 309 307 304
134 137 139 142 140 152 160 170 168 190 305 302 297 309 316 320 317 316 317 319 321 324
154 164 171 167 160 172 181 162 164 280 292 313 318 321 324 325 326 330 335 335 335 331
148 153 144 150 151 154 142 127 6 322 323 324 331 333 337 343 351 353 350 342 337 334
140 140 142 145 143 133 103 348 334 331 330 333 341 353 6 12 8 3 354 348 344 338
135 136 137 135 127 89 9 341 335 336 338 348 11 35 36 30 23 12 0 353 348 345
137 135 129 114 86 40 14 3 358 359 13 37 67 55 48 36 26 11 13 10 6 358
134 127 109 88 65 52 45 36 30 41 59 70 68 57 46 35 31 22 14 8 5 14
124 112 99 85 76 70 63 60 66 68 70 70 60 65 53 38 26 21 15 11 16 23
111 103 99 93 83 80 68 79 78 71 69 65 73 73 49 31 26 22 20 16 16 17
109 107 103 91 90 91 88 86 86 77 72 67 58 49 34 21 21 20 23 15 15 16
111 106 98 92 95 97 98 98 108 80 66 50 42 20 4 358 9 15 26 17 20 17
Wind_Speed_850mb
33 43 47 33 9 27 46 34 24 14 8 15 18 17 16 20 25 29 34 37 39 42
32 29 10 33 28 39 32 16 8 8 12 14 14 14 19 24 29 32 36 40 43 48
31 30 41 47 41 27 14 12 13 13 9 7 12 21 26 29 33 37 42 45 46 48
29 48 53 41 34 22 17 14 10 3 6 14 17 22 28 33 37 40 41 41 40 41
30 36 30 24 15 11 11 7 2 3 9 13 20 26 33 38 38 36 35 36 37 37
39 32 26 16 17 15 10 6 2 8 14 20 27 34 33 29 30 31 33 34 35 39
40 34 26 21 17 12 5 5 10 16 22 28 30 27 24 25 24 26 29 32 35 40
37 32 27 20 12 6 6 11 16 20 23 25 20 20 25 24 26 29 32 37 42 47
30 26 20 14 9 7 9 12 15 18 21 19 23 27 26 27 29 33 38 46 53 51
26 21 17 13 11 13 13 13 16 20 24 27 25 25 27 29 31 38 46 54 55 52
22 19 17 15 15 17 17 18 22 28 26 21 21 21 24 27 36 44 49 50 50 51
21 20 19 18 19 20 21 23 29 27 22 15 15 15 16 25 36 42 47 48 45 46
25 23 22 21 21 22 24 28 26 21 14 15 16 12 15 25 34 39 42 41 41 40
26 23 23 22 23 23 20 20 16 15 14 12 13 14 15 21 29 35 39 45 41 43
Wind_Direction_850mb
222 220 229 253 188 187 195 194 199 220 254 268 278 281 290 301 310 309 308 306 303 302
209 202 176 196 204 199 204 196 235 227 244 250 265 287 311 315 314 309 306 305 305 302
208 184 183 197 189 180 180 199 199 202 199 233 302 310 308 307 311 313 311 309 307 304
134 137 139 142 140 152 160 170 168 190 305 302 297 309 316 320 317 316 317 319 321 324
154 164 171 167 160 172 181 162 164 280 292 313 318 321 324 325 326 330 335 335 335 331
148 153 144 150 151 154 142 127 6 322 323 324 331 333 337 343 351 353 350 342 337 334
140 140 142 145 143 133 103 348 334 331 330 333 341 353 6 12 8 3 354 348 344 338
135 136 137 135 127 89 9 341 335 336 338 348 11 35 36 30 23 12 0 353 348 345
137 135 129 114 86 40 14 3 358 359 13 37 67 55 48 36 26 11 13 10 6 358
134 127 109 88 65 52 45 36 30 41 59 70 68 57 46 35 31 22 14 8 5 14
124 112 99 85 76 70 63 60 66 68 70 70 60 65 53 38 26 21 15 11 16 23
111 103 99 93 83 80 68 79 78 71 69 65 73 73 49 31 26 22 20 16 16 17
109 107 103 91 90 91 88 86 86 77 72 67 58 49 34 21 21 20 23 15 15 16
111 106 98 92 95 97 98 98 108 80 66 50 42 20 4 358 9 15 26 17 20 17